Regional Weather Roundup
Issued by NWS Raleigh/Durham, NC

Home | Current Version | Previous Version | Text Only | Print | Product List | Glossary On
Versions: 1 2 3 4 5 6 7 8 9 10 11 12 13 14 15 16 17 18 19 20 21 22 23 24 25 26 27 28 29 30 31 32 33 34 35 36 37 38 39 40 41 42 43 44 45 46 47 48 49 50
000
ASUS42 KRAH 291710
RWRRAH
NORTH CAROLINA WEATHER ROUNDUP
NATIONAL WEATHER SERVICE RALEIGH NC
100 PM EDT SUN MAR 29 2015

NOTE: "FAIR" INDICATES FEW OR NO CLOUDS BELOW 12,000 FEET WITH NO
SIGNIFICANT WEATHER AND/OR OBSTRUCTIONS TO VISIBILITY.

NCZ001-053-055-056-065-067-291800-
WESTERN NORTH CAROLINA

CITY           SKY/WX    TMP DP  RH WIND       PRES   REMARKS
ASHEVILLE      SUNNY     48  10  21 S9        30.32F
JEFFERSON      SUNNY     41 -11  10 NE3       30.26F
MORGANTON      SUNNY     48   7  19 S5        30.39F
HICKORY        SUNNY     46  10  23 CALM      30.35F
RUTHERFORDTON  SUNNY     46  13  26 SW9       30.39S
MOUNT AIRY     SUNNY     45   1  15 SW6       30.37F
BOONE          SUNNY     45   9  23 SE8       30.26F
$$

NCZ021-022-025-041-071-084-088-291800-
CENTRAL NORTH CAROLINA

CITY           SKY/WX    TMP DP  RH WIND       PRES   REMARKS
CHARLOTTE      MOSUNNY   47   6  18 CALM      30.40F
GREENSBORO     SUNNY     44   5  20 VRB5      30.37F
WINSTON-SALEM  SUNNY     43   4  19 CALM      30.39F
RALEIGH-DURHAM SUNNY     43   7  22 SE5       30.41F
FORT BRAGG     SUNNY     44   9  23 VRB2      30.41F
FAYETTEVILLE   SUNNY     44   9  23 SE3       30.41F
BURLINGTON     SUNNY     43   4  19 SW7       30.39F
LAURINBURG     SUNNY     46   6  19 VRB3      30.43F
$$

NCZ011-015-027-028-043-044-047-080-103-291800-
NORTHEASTERN NORTH CAROLINA

CITY           SKY/WX    TMP DP  RH WIND       PRES   REMARKS
ROCKY MT-WILSO SUNNY     44  12  27 MISG      30.43F
GREENVILLE     SUNNY     43  12  28 NW7       30.42F
WASHINGTON     SUNNY     40  12  31 W7        30.42F
ELIZABETH CITY SUNNY     41  12  30 NW9       30.39F
MANTEO         SUNNY     38  15  39 N10       30.39F WCI  32
CAPE HATTERAS  SUNNY     42  15  33 NW10G20   30.39S
$$

NCZ078-087-090-091-093-098-101-291800-
SOUTHEASTERN NORTH CAROLINA

CITY           SKY/WX    TMP DP  RH WIND       PRES   REMARKS
LUMBERTON      SUNNY     46  15  28 VRB3      30.42F
GOLDSBORO      SUNNY     43  14  30 NW12G17   30.41F
KINSTON        SUNNY     43  10  26 CALM      30.43F
KENANSVILLE    SUNNY     42   7  23 NW7       30.44F
NEW BERN       SUNNY     44  14  29 N12G18    30.43F
CHERRY POINT   SUNNY     44  12  27 NW13      30.42F
BEAUFORT       SUNNY     45  19  35 N12       30.41F
JACKSONVILLE   SUNNY     44  12  27 N8G21     30.42F
WILMINGTON     SUNNY     46  14  27 MISG      30.42F
$$



USA.gov is the U.S. government's official web portal to all federal, state and local government web resources and services.